Clermont County, Batavia, OH

9:10 AM EDT on September 19, 2019 (GMT -0400)
Clermont County, Batavia

Weather History for KI69 - May, 2019

Change the Weather History Date:

Sunday, May 19, 2019

  Actual Average (KLUK) Record (KLUK)
Temperature  
Mean Temperature 72 °F -  
Max Temperature 80 °F 77 °F 93 °F (1962)
Min Temperature 63 °F 55 °F 34 °F (2002)
Cooling Degree Days 8    
Growing Degree Days 22 (Base 50)    
Moisture  
Dew Point 62 °F    
Average Humidity 72    
Maximum Humidity 94    
Minimum Humidity 49    
Precipitation  
Precipitation 0.24 in - - ()
Sea Level Pressure  
Sea Level Pressure 29.88 in    
Wind  
Wind Speed 8 mph (SSW)    
Max Wind Speed 25 mph    
Max Gust Speed 33 mph    
Visibility 10 miles    
Events Rain    
Averages and records for this station are not official NWS values.
T = Trace of Precipitation, MM = Missing Value Source: NWS Daily Summary

Daily Weather History Graph

Daily Weather History Graph

Search for Another Location

Airport or City:

Astronomy

May. 19, 2019 Rise Set
Actual Time 6:20 AM EDT 8:46 PM EDT
Civil Twilight 5:50 AM EDT 9:16 PM EDT
Nautical Twilight 5:12 AM EDT 9:54 PM EDT
Astronomical Twilight 4:30 AM EDT 10:36 PM EDT
Moon 9:45 PM EDT 7:05 AM EDT
Length of Visible Light 15h 26m
Length of Day
14h 25m
Full, 99% of the Moon is Illuminated
May 19
Full
May 26
Last Quarter
Jun 3
New
Jun 10
First Quarter
Jun 17
Full

Hourly Weather History & Observations

Time (EDT) Temp. Heat Index Dew Point Humidity Pressure Visibility Wind Dir Wind Speed Gust Speed Precip Events Conditions
12:15 AM 74.7 °F - 62.6 °F 66% 29.91 in 10.0 mi SSW 5.8 mph - N/A   Clear
12:35 AM 73.9 °F - 62.8 °F 68% 29.91 in 10.0 mi SSW 4.6 mph - N/A   Clear
12:55 AM 73.4 °F - 62.8 °F 69% 29.92 in 10.0 mi SSW 4.6 mph - N/A   Clear
1:15 AM 73.2 °F - 62.8 °F 70% 29.91 in 10.0 mi SSW 5.8 mph - N/A   Scattered Clouds
1:35 AM 72.9 °F - 63.0 °F 71% 29.91 in 10.0 mi SSW 5.8 mph - N/A   Mostly Cloudy
1:55 AM 72.7 °F - 63.0 °F 71% 29.90 in 10.0 mi South 5.8 mph - N/A   Overcast
2:15 AM 72.0 °F - 63.0 °F 73% 29.90 in 10.0 mi South 4.6 mph - N/A   Mostly Cloudy
2:35 AM 71.6 °F - 63.1 °F 75% 29.90 in 10.0 mi SSW 4.6 mph - N/A   Scattered Clouds
2:55 AM 70.9 °F - 63.0 °F 76% 29.89 in 10.0 mi South 3.5 mph - N/A   Clear
3:15 AM 70.5 °F - 63.0 °F 77% 29.89 in 10.0 mi South 5.8 mph - N/A   Clear
3:35 AM 70.7 °F - 63.0 °F 76% 29.89 in 10.0 mi South 4.6 mph - N/A   Clear
3:55 AM 70.9 °F - 63.0 °F 76% 29.88 in 10.0 mi South 5.8 mph - N/A   Clear
4:15 AM 70.7 °F - 63.0 °F 76% 29.89 in 10.0 mi South 6.9 mph - N/A   Clear
4:35 AM 70.3 °F - 62.8 °F 77% 29.89 in 10.0 mi SSW 4.6 mph - N/A   Clear
4:55 AM 70.0 °F - 63.0 °F 78% 29.90 in 10.0 mi SSW 6.9 mph - N/A   Clear
5:15 AM 69.8 °F - 63.0 °F 79% 29.89 in 10.0 mi South 5.8 mph - N/A   Clear
5:35 AM 69.4 °F - 63.0 °F 80% 29.90 in 10.0 mi SSW 6.9 mph - N/A   Clear
5:55 AM 69.4 °F - 63.1 °F 80% 29.90 in 10.0 mi South 6.9 mph - N/A   Clear
6:15 AM 69.4 °F - 63.1 °F 80% 29.90 in 10.0 mi South 6.9 mph - N/A   Clear
6:35 AM 69.6 °F - 63.3 °F 80% 29.89 in 10.0 mi South 5.8 mph - N/A   Clear
6:55 AM 70.7 °F - 63.1 °F 77% 29.89 in 10.0 mi South 6.9 mph - N/A   Clear
7:15 AM 71.4 °F - 63.0 °F 75% 29.88 in 10.0 mi South 8.1 mph - N/A   Clear
7:35 AM 71.4 °F - 62.8 °F 74% 29.88 in 10.0 mi South 6.9 mph - N/A   Clear
7:55 AM 73.2 °F - 62.6 °F 69% 29.88 in 10.0 mi South 8.1 mph 19.6 mph N/A   Clear
8:15 AM 72.9 °F - 62.6 °F 70% 29.87 in 10.0 mi South 12.7 mph 18.4 mph N/A   Clear
8:35 AM 73.2 °F - 62.8 °F 70% 29.88 in 10.0 mi South 10.4 mph 17.3 mph N/A   Clear
8:55 AM 73.6 °F - 63.0 °F 69% 29.88 in 10.0 mi SSW 13.8 mph 18.4 mph N/A   Clear
9:15 AM 74.5 °F - 63.3 °F 68% 29.89 in 10.0 mi SSW 15.0 mph 20.7 mph N/A   Clear
9:35 AM 74.3 °F - 63.7 °F 69% 29.89 in 10.0 mi SSW 8.1 mph 18.4 mph N/A   Clear
9:56 AM 75.6 °F - 64.2 °F 68% 29.88 in 10.0 mi South 11.5 mph 21.9 mph N/A   Clear
10:15 AM 75.9 °F - 64.2 °F 67% 29.89 in 10.0 mi South 10.4 mph 21.9 mph N/A   Clear
10:35 AM 76.6 °F - 64.0 °F 65% 29.89 in 10.0 mi SSW 12.7 mph 20.7 mph N/A   Scattered Clouds
10:56 AM 77.9 °F - 64.4 °F 63% 29.89 in 10.0 mi SSW 8.1 mph 21.9 mph N/A   Scattered Clouds
11:15 AM 79.2 °F - 64.8 °F 61% 29.89 in 10.0 mi SSW 12.7 mph 21.9 mph N/A   Clear
11:35 AM 80.8 °F 81.6 °F 61.3 °F 51% 29.89 in 10.0 mi SW 25.3 mph 32.2 mph N/A   Scattered Clouds
11:55 AM 80.6 °F 81.2 °F 59.7 °F 49% 29.89 in 10.0 mi SW 13.8 mph 27.6 mph N/A   Mostly Cloudy
12:15 PM 79.3 °F - 59.7 °F 51% 29.89 in 10.0 mi SW 18.4 mph 27.6 mph N/A   Overcast
12:35 PM 78.1 °F - 59.4 °F 52% 29.89 in 10.0 mi SSW 11.5 mph 28.8 mph N/A   Mostly Cloudy
12:55 PM 77.2 °F - 59.2 °F 54% 29.89 in 10.0 mi SSW 9.2 mph 20.7 mph N/A   Overcast
1:15 PM 77.2 °F - 58.1 °F 52% 29.88 in 10.0 mi SSW 12.7 mph 19.6 mph N/A   Overcast
1:35 PM 78.6 °F - 58.3 °F 50% 29.87 in 10.0 mi SSW 10.4 mph 23.0 mph N/A   Scattered Clouds
1:55 PM 77.7 °F - 58.1 °F 51% 29.87 in 10.0 mi SSW 16.1 mph 23.0 mph N/A   Mostly Cloudy
2:15 PM 77.7 °F - 58.5 °F 51% 29.87 in 10.0 mi SSW 11.5 mph 25.3 mph N/A   Mostly Cloudy
2:36 PM 78.3 °F - 59.2 °F 52% 29.85 in 10.0 mi South 9.2 mph 19.6 mph N/A   Mostly Cloudy
2:55 PM 77.9 °F - 59.0 °F 52% 29.85 in 10.0 mi SSW 9.2 mph 21.9 mph N/A   Overcast
3:15 PM 77.9 °F - 58.8 °F 52% 29.85 in 10.0 mi South 11.5 mph 23.0 mph N/A   Overcast
3:36 PM 78.3 °F - 59.2 °F 52% 29.84 in 10.0 mi SSW 11.5 mph 23.0 mph N/A   Overcast
3:55 PM 77.9 °F - 59.2 °F 52% 29.84 in 10.0 mi SW 12.7 mph 21.9 mph N/A Rain Light Rain
4:15 PM 74.7 °F - 59.9 °F 60% 29.85 in 10.0 mi WSW 25.3 mph 33.4 mph N/A Rain Light Rain
4:36 PM 69.8 °F - 62.1 °F 76% 29.88 in 7.0 mi WSW 21.9 mph 27.6 mph N/A Rain Rain
4:55 PM 66.7 °F - 63.7 °F 90% 29.85 in 5.0 mi SW 9.2 mph 24.2 mph 0.07 in Rain Light Rain
5:15 PM 68.0 °F - 64.6 °F 89% 29.85 in 10.0 mi WSW 8.1 mph - N/A   Overcast
5:36 PM 67.3 °F - 64.9 °F 92% 29.85 in 10.0 mi WSW 5.8 mph - 0.01 in Rain Rain
5:55 PM 67.1 °F - 64.6 °F 92% 29.86 in 10.0 mi SW 4.6 mph - 0.01 in   Overcast
6:15 PM 67.5 °F - 64.2 °F 89% 29.85 in 10.0 mi WSW 5.8 mph - N/A Rain Light Rain
6:35 PM 68.0 °F - 64.6 °F 89% 29.85 in 10.0 mi SSW 3.5 mph - N/A   Overcast
6:55 PM 67.5 °F - 64.4 °F 90% 29.85 in 10.0 mi SSW 5.8 mph - N/A   Overcast
7:15 PM 68.4 °F - 63.9 °F 85% 29.85 in 10.0 mi SW 5.8 mph - N/A   Mostly Cloudy
7:35 PM 68.5 °F - 63.9 °F 85% 29.84 in 10.0 mi South 5.8 mph - N/A   Mostly Cloudy
7:55 PM 69.4 °F - 63.5 °F 81% 29.84 in 10.0 mi SSW 6.9 mph - N/A   Scattered Clouds
8:15 PM 70.2 °F - 62.8 °F 77% 29.84 in 10.0 mi SW 10.4 mph - N/A   Scattered Clouds
8:35 PM 70.0 °F - 62.6 °F 77% 29.84 in 10.0 mi SSW 5.8 mph - N/A   Clear
8:55 PM 69.8 °F - 61.9 °F 76% 29.84 in 10.0 mi SSW 5.8 mph - N/A   Clear
9:15 PM 70.0 °F - 61.5 °F 74% 29.85 in 10.0 mi SSW 9.2 mph - N/A   Clear
9:35 PM 70.0 °F - 61.3 °F 74% 29.85 in 10.0 mi SSW 8.1 mph - N/A   Clear
9:55 PM 69.6 °F - 61.3 °F 75% 29.85 in 10.0 mi SSW 8.1 mph 16.1 mph N/A   Clear
10:15 PM 69.3 °F - 61.7 °F 77% 29.86 in 10.0 mi SSW 9.2 mph - N/A   Clear
10:35 PM 68.9 °F - 62.1 °F 79% 29.87 in 10.0 mi SSW 10.4 mph 18.4 mph N/A   Clear
10:55 PM 68.7 °F - 62.4 °F 80% 29.87 in 10.0 mi SW 9.2 mph - N/A   Clear
11:15 PM 68.4 °F - 62.2 °F 81% 29.90 in 10.0 mi NW 12.7 mph 16.1 mph N/A   Mostly Cloudy
11:35 PM 65.1 °F - 61.7 °F 89% 29.90 in 7.0 mi West 10.4 mph 18.4 mph 0.03 in Rain Heavy Rain
11:55 PM 63.5 °F - 61.7 °F 94% 29.91 in 5.0 mi WSW 9.2 mph - 0.16 in Rain Heavy Rain